ANA762 RJCH-RJAA

Flight info

Callsign ANA762
Flight time N/A
Altitude 36000
Route TSUGA2 UWE DCT SWAMP SWAMPG
Aircraft B764/H-SDE3FGHIM3RWXY/LB1

Departure

Time 2026-05-06 10:44
Airport Hakodate Airport (RJCH)

Arrival

Time N/A
Airport Narita International Airport (RJAA)
Time Latitude Longitude Altitude Speed Heading
2026-05-06 10:16 41.77468 140.81609 116 ft 0 kts 18°
2026-05-06 10:31 41.77459 140.81604 116 ft 2 kts 18°
2026-05-06 10:31 41.77444 140.81598 116 ft 2 kts 18°
2026-05-06 10:31 41.77430 140.81592 116 ft 2 kts 24°
2026-05-06 10:32 41.77418 140.81581 116 ft 2 kts 53°
2026-05-06 10:32 41.77410 140.81563 116 ft 2 kts 75°
2026-05-06 10:32 41.77409 140.81543 116 ft 2 kts 97°
2026-05-06 10:32 41.77411 140.81534 116 ft 1 kts 111°
2026-05-06 10:33 41.77412 140.81528 116 ft 0 kts 109°
2026-05-06 10:35 41.77402 140.81557 116 ft 6 kts 126°
2026-05-06 10:35 41.77361 140.81595 116 ft 7 kts 148°
2026-05-06 10:36 41.77330 140.81641 116 ft 7 kts 118°
2026-05-06 10:36 41.77308 140.81722 116 ft 10 kts 108°
2026-05-06 10:36 41.77286 140.81813 116 ft 10 kts 108°
2026-05-06 10:36 41.77266 140.81898 116 ft 9 kts 107°
2026-05-06 10:37 41.77241 140.81999 116 ft 14 kts 109°
2026-05-06 10:37 41.77210 140.82124 118 ft 12 kts 108°
2026-05-06 10:37 41.77185 140.82225 120 ft 10 kts 108°
2026-05-06 10:37 41.77166 140.82301 122 ft 7 kts 109°
2026-05-06 10:38 41.77152 140.82358 123 ft 6 kts 106°
2026-05-06 10:38 41.77137 140.82423 125 ft 6 kts 109°
2026-05-06 10:38 41.77123 140.82480 126 ft 6 kts 108°
2026-05-06 10:38 41.77105 140.82555 128 ft 9 kts 107°
2026-05-06 10:39 41.77083 140.82649 130 ft 10 kts 107°
2026-05-06 10:39 41.77065 140.82730 133 ft 7 kts 110°
2026-05-06 10:39 41.77045 140.82805 134 ft 9 kts 109°
2026-05-06 10:39 41.77022 140.82896 137 ft 11 kts 108°
2026-05-06 10:40 41.76996 140.83008 140 ft 13 kts 108°
2026-05-06 10:40 41.76967 140.83125 144 ft 12 kts 107°
2026-05-06 10:40 41.76944 140.83220 146 ft 8 kts 109°
2026-05-06 10:40 41.76928 140.83285 148 ft 5 kts 108°
2026-05-06 10:41 41.76915 140.83336 150 ft 7 kts 108°
2026-05-06 10:41 41.76891 140.83435 152 ft 14 kts 109°
2026-05-06 10:41 41.76856 140.83580 156 ft 18 kts 108°
2026-05-06 10:41 41.76812 140.83760 160 ft 20 kts 108°
2026-05-06 10:42 41.76768 140.83920 164 ft 15 kts 126°
2026-05-06 10:42 41.76689 140.83943 165 ft 10 kts 197°
2026-05-06 10:42 41.76648 140.83923 165 ft 2 kts 199°
2026-05-06 10:42 41.76615 140.83897 164 ft 5 kts 236°
2026-05-06 10:43 41.76615 140.83844 163 ft 7 kts 287°
2026-05-06 10:43 41.76647 140.83719 160 ft 29 kts 288°
2026-05-06 10:43 41.76765 140.83232 148 ft 81 kts 288°
2026-05-06 10:44 41.77300 140.81049 223 ft 151 kts 286°
2026-05-06 10:44 41.77655 140.79645 458 ft 165 kts 286°
2026-05-06 10:44 41.77889 140.78270 1088 ft 150 kts 262°
2026-05-06 10:44 41.77456 140.76935 1223 ft 173 kts 227°
2026-05-06 10:45 41.76420 140.75853 1377 ft 205 kts 216°
2026-05-06 10:45 41.75138 140.74756 1736 ft 229 kts 216°
2026-05-06 10:45 41.73795 140.73585 2528 ft 235 kts 217°
2026-05-06 10:45 41.72446 140.72363 3487 ft 235 kts 218°
2026-05-06 10:46 41.71098 140.71114 4364 ft 239 kts 219°
2026-05-06 10:46 41.69738 140.69836 5253 ft 242 kts 219°
2026-05-06 10:46 41.68376 140.68545 6097 ft 246 kts 219°
2026-05-06 10:46 41.66975 140.67213 6956 ft 250 kts 219°
2026-05-06 10:47 41.65560 140.65865 7817 ft 253 kts 219°
2026-05-06 10:47 41.64132 140.64502 8617 ft 257 kts 219°
2026-05-06 10:47 41.62679 140.63113 9436 ft 261 kts 219°
2026-05-06 10:47 41.61203 140.61703 10205 ft 266 kts 219°
2026-05-06 10:48 41.59650 140.60217 10572 ft 289 kts 219°
2026-05-06 10:48 41.57940 140.58580 10715 ft 319 kts 219°
2026-05-06 10:48 41.56041 140.56767 10890 ft 350 kts 218°
2026-05-06 10:48 41.54026 140.54852 11842 ft 358 kts 218°
2026-05-06 10:49 41.51993 140.52919 12793 ft 365 kts 218°
2026-05-06 10:49 41.49944 140.50970 13796 ft 371 kts 218°
2026-05-06 10:49 41.47830 140.48961 14774 ft 376 kts 218°
2026-05-06 10:49 41.45693 140.46931 15687 ft 384 kts 218°
2026-05-06 10:50 41.43498 140.44846 16645 ft 390 kts 218°
2026-05-06 10:50 41.41297 140.42760 17490 ft 399 kts 218°
2026-05-06 10:50 41.39041 140.40622 18433 ft 404 kts 218°
2026-05-06 10:50 41.36725 140.38429 19465 ft 408 kts 218°
2026-05-06 10:51 41.34402 140.36232 20375 ft 415 kts 218°
2026-05-06 10:51 41.32080 140.34038 21260 ft 420 kts 217°
2026-05-06 10:51 41.29665 140.31757 22050 ft 427 kts 217°
2026-05-06 10:51 41.27228 140.29459 22912 ft 432 kts 217°
2026-05-06 10:52 41.24789 140.27161 23732 ft 436 kts 218°
2026-05-06 10:52 41.22300 140.24815 24376 ft 444 kts 218°
2026-05-06 10:52 41.19798 140.22464 25213 ft 446 kts 218°
2026-05-06 10:52 41.17205 140.20126 25839 ft 454 kts 214°
2026-05-06 10:53 41.14340 140.18274 26445 ft 464 kts 204°
2026-05-06 10:53 41.11261 140.17062 27058 ft 473 kts 195°
2026-05-06 10:53 41.07974 140.16495 27648 ft 482 kts 186°
2026-05-06 10:53 41.04622 140.16534 28239 ft 487 kts 181°
2026-05-06 10:54 41.01220 140.16628 28662 ft 492 kts 182°
2026-05-06 10:54 41.00063 140.16652 28840 ft 493 kts 182°
2026-05-06 10:54 40.94361 140.16769 30029 ft 490 kts 183°
2026-05-06 10:54 40.90996 140.16829 30642 ft 489 kts 183°
2026-05-06 10:55 40.87600 140.16884 31194 ft 489 kts 184°
2026-05-06 10:55 40.84220 140.16939 31852 ft 486 kts 184°
2026-05-06 10:55 40.80841 140.16991 32388 ft 486 kts 184°
2026-05-06 10:55 40.77445 140.17017 32963 ft 484 kts 184°
2026-05-06 10:56 40.74132 140.17061 33471 ft 483 kts 184°
2026-05-06 10:56 40.70749 140.17122 33978 ft 482 kts 184°
2026-05-06 10:56 40.67427 140.17177 34409 ft 481 kts 184°
2026-05-06 10:56 40.64103 140.17229 34784 ft 480 kts 185°
2026-05-06 10:57 40.60762 140.17282 35316 ft 475 kts 185°
2026-05-06 10:57 40.57504 140.17331 35787 ft 471 kts 185°
2026-05-06 10:57 40.54211 140.17380 36091 ft 467 kts 185°
2026-05-06 10:58 40.47782 140.17473 36092 ft 464 kts 186°
2026-05-06 10:58 40.41330 140.17563 36066 ft 467 kts 186°
2026-05-06 10:59 40.34864 140.17656 36081 ft 462 kts 185°
2026-05-06 10:59 40.28424 140.17747 36085 ft 463 kts 185°
2026-05-06 11:00 40.21984 140.17839 36085 ft 464 kts 185°
2026-05-06 11:00 40.15555 140.17932 36087 ft 462 kts 186°
2026-05-06 11:01 40.09134 140.18024 36087 ft 461 kts 186°
2026-05-06 11:01 40.02744 140.18115 36087 ft 461 kts 186°
2026-05-06 11:02 39.96348 140.18207 36101 ft 457 kts 186°
2026-05-06 11:02 39.89963 140.18297 36088 ft 458 kts 186°
2026-05-06 11:03 39.83646 140.18385 36100 ft 458 kts 186°
2026-05-06 11:03 39.77245 140.18475 36106 ft 458 kts 186°
2026-05-06 11:04 39.70896 140.18567 36076 ft 455 kts 187°
2026-05-06 11:04 39.64630 140.18655 36104 ft 453 kts 187°
2026-05-06 11:05 39.58272 140.19052 36115 ft 459 kts 182°
2026-05-06 11:05 39.51950 140.19772 36095 ft 456 kts 183°
2026-05-06 11:06 39.45653 140.20476 36114 ft 455 kts 183°
2026-05-06 11:06 39.42501 140.20827 36352 ft 455 kts 183°
2026-05-06 11:06 39.39350 140.21175 36086 ft 459 kts 183°
2026-05-06 11:07 39.33054 140.21876 36103 ft 451 kts 183°
2026-05-06 11:07 39.26819 140.22562 36106 ft 454 kts 183°
2026-05-06 11:08 39.20513 140.23257 36113 ft 453 kts 183°
2026-05-06 11:08 39.14273 140.23949 36116 ft 447 kts 184°
2026-05-06 11:09 39.08090 140.24626 36125 ft 445 kts 184°
2026-05-06 11:09 39.01926 140.25301 36128 ft 447 kts 184°
2026-05-06 11:10 38.95769 140.25977 36123 ft 444 kts 184°
2026-05-06 11:10 38.89623 140.26651 36119 ft 439 kts 185°
2026-05-06 11:11 38.83577 140.27307 36131 ft 441 kts 185°
2026-05-06 11:11 38.77449 140.27974 36131 ft 441 kts 185°
2026-05-06 11:12 38.71339 140.28642 36123 ft 438 kts 186°
2026-05-06 11:12 38.65345 140.29294 36128 ft 433 kts 186°
2026-05-06 11:13 38.59283 140.29944 36133 ft 439 kts 186°
2026-05-06 11:13 38.53216 140.30603 36141 ft 436 kts 186°
2026-05-06 11:14 38.47257 140.31251 36124 ft 429 kts 187°
2026-05-06 11:14 38.41310 140.31891 36132 ft 428 kts 187°
2026-05-06 11:15 38.35401 140.32526 36131 ft 428 kts 187°
2026-05-06 11:15 38.29464 140.33164 36122 ft 428 kts 188°
2026-05-06 11:16 38.23523 140.33798 36125 ft 429 kts 188°
2026-05-06 11:16 38.17601 140.34433 36126 ft 425 kts 188°
2026-05-06 11:17 38.11778 140.35063 36131 ft 417 kts 189°
2026-05-06 11:17 38.05971 140.35680 36135 ft 418 kts 190°
2026-05-06 11:18 38.00144 140.36296 36123 ft 421 kts 189°
2026-05-06 11:18 37.94316 140.36916 36145 ft 423 kts 189°
2026-05-06 11:19 37.88441 140.37541 36151 ft 424 kts 189°
2026-05-06 11:19 37.82565 140.38164 36149 ft 424 kts 189°
2026-05-06 11:20 37.76733 140.38785 36172 ft 420 kts 189°
2026-05-06 11:20 37.70937 140.39397 36147 ft 420 kts 189°
2026-05-06 11:21 37.65064 140.40012 36149 ft 427 kts 189°
2026-05-06 11:21 37.59181 140.40642 36140 ft 417 kts 189°
2026-05-06 11:22 37.53368 140.41246 36143 ft 423 kts 189°
2026-05-06 11:22 37.47482 140.41862 36141 ft 426 kts 189°
2026-05-06 11:23 37.41594 140.42487 36144 ft 421 kts 189°
2026-05-06 11:23 37.35789 140.43094 36158 ft 421 kts 189°
2026-05-06 11:24 37.29933 140.43701 35840 ft 430 kts 189°
2026-05-06 11:24 37.26936 140.44011 35061 ft 435 kts 188°
2026-05-06 11:24 37.23936 140.44328 34338 ft 432 kts 188°
2026-05-06 11:24 37.22918 140.44435 34094 ft 431 kts 188°